Regional Weather Roundup
Issued by NWS

Home | Current Version | Previous Version | Graphics & Text | Print | Product List | Glossary On
Versions: 1 2 3 4 5 6 7 8 9 10 11 12 13 14 15 16 17 18 19 20 21 22 23 24 25 26 27 28 29 30 31 32 33 34 35 36 37 38 39 40 41 42 43 44 45 46 47 48 49 50
000
ASUS45 KBOU 031507
RWRCO

WEATHER ROUNDUP FOR COLORADO
NATIONAL WEATHER SERVICE DENVER/BOULDER CO
900 AM MDT SUN MAY 03 2015

NOTE: "FAIR" INDICATES FEW OR NO CLOUDS BELOW 12000 FEET WITH NO
SIGNIFICANT WEATHER AND/OR OBSTRUCTIONS TO VISIBILITY.

COZ001>005-013-030-031-031600-
...NORTHWEST COLORADO...

CITY           SKY/WX    TMP DP  RH WIND       PRES   REMARKS
CRAIG          SUNNY     52  41  66 W3        30.04R
HAYDEN         SUNNY     54  34  47 E13       30.05R
MEEKER         SUNNY     57  37  47 CALM      30.04S
MOUNT WERNER   NOT AVBL
STEAMBOAT SPGS SUNNY     48  36  64 CALM      30.07S
WALDEN         SUNNY     45  34  65 E3        30.12S
$$

COZ006>008-011-031600-
...WEST CENTRAL VALLEYS...

CITY           SKY/WX    TMP DP  RH WIND       PRES   REMARKS
GRAND JUNCTION MOSUNNY   63  40  42 SE12      29.98R
MONTROSE       MOSUNNY   64  34  32 CALM      30.06R
EAGLE          MOSUNNY   48  37  66 CALM      30.13S
RIFLE          MOSUNNY   58  38  47 CALM      30.04R
DELTA          MOSUNNY   64  34  32 E3        30.03R
NUCLA          MOSUNNY   61  32  33 S3        30.11R
$$

COZ017>023-064>068-031600-
...SOUTHWEST COLORADO...

CITY           SKY/WX    TMP DP  RH WIND       PRES   REMARKS
DURANGO        CLOUDY    54  36  50 SW7       30.13R
CORTEZ         LGT RAIN  54  45  71 CALM      30.11R
PAGOSA SPRINGS PTSUNNY   54  33  45 CALM      30.17S
TELLURIDE      CLOUDY    53  28  36 NW3       30.23S
WOLF CREEK PAS NOT AVBL
$$

COZ009-010-012-014-032>034-037-058>063-031600-
...CENTRAL COLORADO...

CITY           SKY/WX    TMP DP  RH WIND       PRES   REMARKS
ASPEN          SUNNY     51  33  50 CALM      30.11F
BUENA VISTA    NOT AVBL
COPPER MTN     MOSUNNY   41  23  48 N3        30.32R
BERTHOUD PASS  FAIR      32  23  69 W28G37    30.32R WCI  18
COTTONWOOD PAS MOSUNNY   46  36  66 CALM      30.24R
GUNNISON       MOSUNNY   45  32  61 CALM      30.21R
KREMMLING      SUNNY     45  32  61 CALM      30.15F
LEADVILLE      SUNNY     43  28  55 CALM      30.21S
MONARCH PASS   MOSUNNY   36  27  69 SW10      30.43R
SALIDA         MOSUNNY   50  38  62 N9        30.22S
SUNLIGHT       MOSUNNY   46  28  49 CALM      30.29R
WILKERSON PASS PTSUNNY   39  25  56 SW3       30.32R
$$

COZ069>075-031600-
...SAN LUIS VALLEY/SANGRE DE CRISTO MOUNTAINS...

CITY           SKY/WX    TMP DP  RH WIND       PRES   REMARKS
ALAMOSA        SUNNY     49  36  61 E3        30.16S
LA VETA PASS   MOSUNNY   45  32  61 MISG      30.25R
SAGUACHE       MOSUNNY   50  36  57 NW14      30.17S
$$

COZ035-036-038>040-031600-
...NORTHERN COLORADO FRONT RANGE...

CITY           SKY/WX    TMP DP  RH WIND       PRES   REMARKS
DENVER INTL AP PTSUNNY   65  41  41 SW13      29.97R
DMNS CITY PARK   N/A     65  36  33 SW3       29.97S
AURORA         NOT AVBL
FRONT RANGE AP PTSUNNY   66  45  45 S8        29.99R
ERIE MUNI ARPT PTSUNNY   67  34  29 SW5       29.95S
BOULDER MUN AP PTSUNNY   68  36  30 CALM      29.95S
CENTENNIAL     PTSUNNY   65  38  36 SW10      29.99R
BROOMFIELD     PTSUNNY   64  37  36 CALM      29.99R
FORT COLLINS   MOSUNNY   63  43  48 N5        29.96S
LONGMONT       MOSUNNY   73  43  33 E7        29.96R
$$

COZ041-046-047-076>085-087-088-031600-
...PIKES PEAK/PALMER DIVIDE AND SOUTHERN FOOTHILLS...

CITY           SKY/WX    TMP DP  RH WIND       PRES   REMARKS
COLO. SPRINGS  PTSUNNY   69  32  25 N7        30.01R
A. F. ACADEMY  NOT AVBL
ELLICOTT       MOSUNNY  N/A N/A N/A N8        30.00R
FALCON         MOSUNNY   66  28  24 NW5       30.06R
FORT CARSON    NOT AVBL
LIMON          SUNNY     68  36  30 NW14      29.97R
MONUMENT HILL  MOSUNNY   63  32  31 W8        30.05S
TRINIDAD       PTSUNNY   61  40  45 N3        30.01S
$$

COZ042>045-048>051-090-091-031600-
...NORTHEAST COLORADO...

CITY           SKY/WX    TMP DP  RH WIND       PRES   REMARKS
GREELEY ARPT   SUNNY     59  45  58 E3        29.96R
AKRON          SUNNY     62  45  53 W10       29.93R
BURLINGTON     SUNNY     71  43  36 NW8       29.90S
WRAY           SUNNY     73  44  36 NW16      29.86F
STERLING       SUNNY     61  50  67 W7        29.90R
HOLYOKE        NOT AVBL
FORT MORGAN    SUNNY     66 -13   4 CALM      29.95R
$$

COZ086-089-092>099-031600-
...SOUTHEAST COLORADO...

CITY           SKY/WX    TMP DP  RH WIND       PRES   REMARKS
PUEBLO         MOSUNNY   64  43  46 N3        29.94R
LA JUNTA       MOSUNNY   64  43  46 MISG      29.93R
LAMAR          PTSUNNY   64  50  60 NW9       29.89R
SPRINGFIELD      N/A     73  38  27 W18       29.93R
$$



USA.gov is the U.S. government's official web portal to all federal, state and local government web resources and services.